Location: Izdebno
(52.6670°N, 16.2170°E)
Time: 03:55:36
(UTC+02:00)

Transit 4A - Pass Details

Date: 22 February 2024
Orbit: 871 x 972 km, 66.8° (Epoch: 22 April)

Event Time Altitude Azimuth Distance (km) Brightness Sun altitude
Rises 11:37:43 0° 315° (NW) 3,503 10.5 26.7°
Reaches altitude 10° 11:40:38 10° 303° (WNW) 2,548 9.9 26.8°
Maximum altitude 11:45:17 25° 250° (WSW) 1,697 9.7 26.8°
Drops below altitude 10° 11:49:53 10° 198° (SSW) 2,514 11.5 26.9°
Sets 11:52:45 0° 185° (S) 3,448 12.1 26.9°
